Location: Kouchibouguac National Park
(46.8081°N, 64.9088°W)
Time: 19:35:02
(UTC-03:00)

Daily predictions for brighter satellites

Satellite Brightness Start Highest point End
(mag) Time Altitude Azimuth Time Altitude Azimuth Time Altitude Azimuth
Lacrosse 5 3.5 20:45:29 10° NW 20:49:52 28° N 20:54:15 10° ENE
Cosmos 1515 Rocket 3.8 20:48:52 10° SSE 20:53:10 49° E 20:57:29 10° NNE
Nadezhda 3 Rocket 4.4 20:47:11 10° NNW 20:53:29 73° W 20:59:49 10° S
Cosmos 1825 2.4 20:56:08 10° N 20:59:51 52° ENE 21:03:33 10° SSE
BREEZE-M DEB (TANK) 3.3 20:50:53 10° W 21:00:26 69° NNW 21:03:25 10° ENE
Envisat 3.7 20:56:14 10° S 21:01:13 58° W 21:06:16 10° NNW
CZ-4C R/B 3.8 21:01:33 10° ESE 21:02:53 11° ESE 21:04:14 10° E
Cosmos 405 Rocket 4.5 21:00:47 10° SE 21:03:06 15° E 21:05:28 10° NE
H-2A R/B 3.3 21:02:55 10° ESE 21:06:50 23° ENE 21:10:41 10° N
Cosmos 1328 Rocket 3.7 21:03:55 10° SSW 21:08:20 80° W 21:12:49 10° N
Cosmos 2344 4.5 21:04:27 10° SSE 21:10:17 24° ESE 21:16:26 10° ENE
Cosmos 1943 Rocket 4.3 21:09:29 10° N 21:12:11 13° NE 21:14:52 10° ENE
Cosmos 2228 Rocket 3.0 21:09:00 10° S 21:13:23 80° E 21:17:49 10° NNE
Meteor 2-10 Rocket 4.2 21:08:43 10° SSE 21:14:06 43° E 21:19:35 10° NNE
ARGOS 3.9 21:10:05 10° SE 21:14:54 36° ENE 21:19:46 10° N
BREEZE-M DEB (TANK) 2.4 21:12:48 10° W 21:15:31 54° NNW 21:17:42 10° ENE
OE (NEXTSAT) 4.4 21:13:03 10° W 21:16:37 79° S 21:19:49 12° E
Cosmos 2056 Rocket 3.8 21:12:43 10° S 21:17:53 47° ESE 21:23:03 10° NNE
Cosmos 1862 4.3 21:14:45 10° N 21:18:22 30° ENE 21:21:14 14° SE
ATLAS 2AS CENTAUR R/B 3.9 21:14:27 10° NW 21:21:49 44° WSW 21:28:37 10° S
Cosmos 1470 Rocket 4.1 21:18:19 10° NNW 21:22:41 61° W 21:27:03 10° S
Cosmos 1408 2.9 21:19:02 10° NNW 21:22:42 71° W 21:26:23 10° S
SL-16 R/B 2.6 21:18:40 10° S 21:23:53 40° ESE 21:29:09 10° NE
Cosmos 1140 Rocket 4.2 21:19:41 10° N 21:24:33 39° ENE 21:28:22 15° ESE
NOSS 0 Rocket 4.2 21:22:11 10° SW 21:28:21 74° WNW 21:34:36 10° NNE
Cosmos 1190 Rocket 4.0 21:27:30 10° NNW 21:32:50 84° ENE 21:37:38 13° SSE
Cosmos 1624 Rocket 3.9 21:29:05 10° S 21:34:13 68° ESE 21:39:24 10° NNE
Cosmos 2098 Rocket 2.6 21:33:18 10° S 21:37:34 70° E 21:41:01 10° NNE
Cosmos 1959 Rocket 4.4 21:32:44 10° S 21:38:54 86° E 21:45:02 10° N
Resurs 01 Rocket 2.7 21:37:20 10° S 21:41:34 44° W 21:45:51 10° NNW
Cosmos 1727 Rocket 3.9 21:36:31 10° N 21:42:43 78° E 21:48:51 10° SSE
Cosmos 405 2.9 21:39:39 10° N 21:43:10 87° ENE 21:45:47 17° S
Spot 2 Rocket 4.0 21:38:40 10° S 21:43:42 61° WSW 21:48:45 10° NNW
Cosmos 1954 Rocket 4.2 21:39:02 10° NNW 21:44:11 56° ENE 21:47:37 20° SE
Cosmos 1151 Rocket 4.0 21:40:10 10° SSW 21:44:18 50° WNW 21:48:30 10° N
Cosmos 1980 4.5 21:43:15 10° SW 21:48:49 56° WNW 21:54:26 10° NNE
MetOp-A 4.1 21:48:07 17° SSE 21:52:18 72° ENE 21:57:39 10° N
SL-8 R/B 3.6 21:47:39 10° WSW 21:52:28 89° SE 21:57:18 10° ENE
NOSS 3-4 (A) 4.0 21:45:53 10° NW 21:52:52 73° SW 21:58:48 17° SSE
NOSS 3-4 (C) 4.0 21:45:59 10° NW 21:52:58 73° SW 21:58:53 18° SSE
Cosmos 2297 3.8 21:49:18 10° NNW 21:54:58 75° WSW 21:59:23 17° SSE
Cosmos 2369 Rocket 3.4 21:50:38 10° NNW 21:55:38 30° NE 21:58:49 18° E
Helios 1A 3.6 22:00:35 28° ESE 22:02:13 41° ENE 22:06:11 10° N
Terra 3.4 22:01:13 18° E 22:02:53 21° ENE 22:06:27 10° NNE
Cosmos 2218 Rocket 4.5 21:57:37 10° SSW 22:03:56 64° WNW 22:10:20 10° N
Cosmos 1869 4.4 22:00:13 10° SSW 22:04:06 46° WNW 22:08:00 10° N
Cosmos 614 Rocket 3.9 21:59:17 10° NNW 22:04:32 82° ENE 22:07:36 25° SSE
Cosmos 1441 Rocket 3.0 22:02:09 15° S 22:05:09 84° E 22:08:56 10° NNE
Cosmos 2333 Rocket 4.3 22:02:00 10° WSW 22:06:55 30° NW 22:11:52 10° N
Cosmos 1707 Rocket 3.5 22:05:01 22° S 22:07:39 62° E 22:11:56 10° NNE
Cosmos 2366 rocket 4.5 22:04:58 10° SSW 22:11:09 62° WNW 22:17:26 10° N
Cosmos 1933 3.5 22:09:53 33° SSE 22:11:26 54° E 22:15:26 10° NNE
ERS-1 Rocket 2.9 22:09:54 26° SSE 22:12:43 76° ENE 22:17:45 10° N
ATLAS CENTAUR R/B 4.1 22:10:08 10° W 22:12:55 19° NW 22:15:49 10° NNE
ATLAS 5 CENTAUR R/B 3.1 22:08:11 10° NNW 22:13:39 43° NE 22:17:17 22° E
Cosmos 1869 Rocket 3.8 22:09:43 10° NNW 22:14:04 66° W 22:16:54 21° S
Cosmos 2237 Rocket 3.7 22:10:15 10° WSW 22:15:30 39° NW 22:20:48 10° NNE
SL-08 RB Rocket 3.6 22:15:45 28° SSE 22:18:05 86° WSW 22:22:35 10° NNW
Cosmos 1420 Rocket 4.1 22:15:04 21° S 22:18:26 53° ESE 22:23:36 10° NNE
Cosmos 1241 Rocket 4.5 22:12:40 10° NW 22:19:00 80° NE 22:22:22 30° SE
Cosmos 1633 3.7 22:17:24 10° NNE 22:20:25 27° ENE 22:20:25 27° ENE
Cosmos 2278 Rocket 4.5 22:18:34 10° WNW 22:22:25 19° W 22:26:15 10° SW
Cosmos 1733 Rocket 3.4 22:18:14 10° N 22:22:29 46° ENE 22:23:26 39° ESE
CARTOSAT-1 4.5 22:24:51 30° E 22:25:37 32° ENE 22:29:29 10° N
GEOS 3 Rocket 4.2 22:21:53 10° NE 22:26:46 35° ESE 22:27:03 34° SE
Meteor 1-4 Rocket 3.5 22:24:55 10° N 22:27:49 31° ENE 22:27:49 31° ENE
Cosmos 2098 4.2 22:29:33 63° SSW 22:30:00 84° W 22:33:33 10° N
Lacrosse 5 2.1 22:28:36 10° NW 22:33:39 63° NNE 22:35:36 36° E
CZ-2C R/B 4.1 22:33:29 24° E 22:34:27 26° ENE 22:38:28 10° N
SPOT 5 2.6 22:35:32 46° SSE 22:36:49 78° ENE 22:41:14 10° NNW
USA 234 4.2 22:31:08 11° E 22:37:02 43° NNE 22:43:08 10° NW
SL-19 R/B 4.3 22:35:26 37° SE 22:37:37 69° ENE 22:43:15 10° NNW
SPOT 1/Viking Rocket 3.5 22:36:09 39° SSE 22:38:06 76° ENE 22:43:20 10° NNW
Cosmos 405 Rocket 3.8 22:35:29 13° SW 22:38:44 44° WNW 22:42:33 10° N
DMSP B5D2-2 4.0 22:35:21 10° NNE 22:40:36 65° ESE 22:42:31 39° S
Meteor 1-26 Rocket 4.2 22:38:56 38° SSE 22:40:56 62° E 22:46:27 10° NNE
Intercosmos 24 4.4 22:38:53 28° S 22:41:58 76° E 22:46:18 10° NNE
H-2A R/B 2.6 22:43:19 25° SSW 22:45:58 51° W 22:50:48 10° NNW
Cosmos 1437 Rocket 2.7 22:44:14 10° NNW 22:48:08 81° W 22:48:33 68° SSW
CZ-4C R/B 2.0 22:44:58 11° SSW 22:50:00 73° SE 22:56:01 10° NE
Meteor 1-20 Rocket 4.2 22:45:07 10° N 22:50:34 66° ENE 22:51:59 48° SE
ARGOS 4.4 22:51:35 17° SSW 22:55:08 36° W 23:00:04 10° NNW
Cosmos 1943 Rocket 2.4 22:51:43 10° NNW 22:57:11 57° ENE 22:58:32 45° ESE
Cosmos 1934 Rocket 3.8 22:56:41 37° S 22:59:15 83° E 23:05:20 10° N
Cosmos 1452 Rocket 4.0 22:55:17 10° SW 23:00:28 61° WNW 23:05:42 10° NNE
Spot 1 4.2 22:59:41 58° S 23:00:39 85° WSW 23:05:19 10° NNW
Cosmos 2242 Rocket 3.5 23:02:41 68° SSW 23:03:14 87° W 23:07:40 10° N
Helios 1B rocket 2.3 23:00:32 10° NNE 23:04:41 86° WNW 23:04:56 79° SW
RESURS DK-1 2.3 23:01:59 10° NNW 23:06:05 75° NE 23:06:05 75° NE
BREEZE M DEB (TANK) 3.9 22:53:11 10° W 23:07:11 71° N 23:09:52 26° ENE
SL-16 R/B 3.6 23:02:49 10° WSW 23:08:03 37° NW 23:13:18 10° NNE
Cosmos 1850 Rocket 4.4 23:10:29 10° NNW 23:15:32 54° WSW 23:16:35 46° SSW
Gblst 52 Del rocket 3.9 23:11:46 10° SW 23:17:16 75° SSE 23:22:51 10° ENE
Cosmos 1908 Rocket 3.5 23:14:20 10° N 23:18:37 75° NE 23:18:37 75° NE
H-2A R/B 4.3 23:20:55 15° ENE 23:21:09 15° ENE 23:23:43 10° NNE
Cosmos 921 Rocket 3.1 23:21:56 71° W 23:22:04 72° WNW 23:26:22 10° NNE
Landsat 7 4.2 23:21:41 48° SW 23:22:24 53° W 23:27:06 10° NNW
Cosmos 2344 3.8 23:16:00 10° SW 23:23:35 74° NW 23:32:24 10° NE
Cosmos 1862 Rocket 3.9 23:23:56 55° WSW 23:24:25 59° WNW 23:28:46 10° N
SL-8 R/B 3.8 23:30:23 10° W 23:35:12 73° N 23:35:24 72° NNE
Cosmos 1603 4.1 23:31:54 24° SW 23:35:13 60° WNW 23:40:47 10° NNE
Cosmos 1943 3.0 23:34:57 69° S 23:35:41 85° ESE 23:41:25 10° NNE
Cosmos 1606 3.6 23:38:26 49° NNW 23:38:26 49° NNW 23:41:37 10° N
Cosmos 2100 Rocket 4.2 23:39:06 50° ESE 23:39:29 51° E 23:45:38 10° NNE
Cosmos 2369 Rocket 2.5 23:34:25 10° NW 23:39:57 52° WSW 23:40:37 50° SW
Terra 2.2 23:40:06 52° WSW 23:40:17 53° W 23:44:58 10° NNW
Cosmos 1802 Rocket 4.5 23:43:29 42° E 23:43:29 42° E 23:49:17 10° NNE
Cosmos 1461 3.3 23:38:59 10° NW 23:43:21 73° NNW 23:43:21 73° NNW
CZ-2C R/B 2.8 23:38:42 10° NNE 23:43:41 58° E 23:43:41 58° E
USA 267 3.1 23:38:05 10° NE 23:44:37 68° SE 23:46:13 51° SSW
ALOS 2 4.3 23:45:52 24° NE 23:45:52 24° NE 23:48:53 10° N
Cosmos 2263 4.3 23:42:18 10° NNW 23:47:50 62° WSW 23:48:08 61° SW
Cosmos 2061 Rocket 4.4 23:47:48 47° E 23:48:01 47° E 23:54:08 10° NNE
Meteor 1-11 Rocket 3.7 23:42:43 10° N 23:48:20 66° ENE 23:48:26 66° E
Mayak 1.2 23:47:54 10° NE 23:48:44 13° NE 23:48:44 13° NE
